�N����,����,�~����,�C��,���x,�C��,����,���ϕ���,�ő�u�ԕ���,�ő厞����,���˗�,�I�_���x,�n�����x,�ő啗���N��,DTYPE
"16/10/20","00:10",0.0,20.6,88.9,1008.6,329.8,1.1,2.4,344.1,0.00,18.7,21.6,"00:01:20",1
"16/10/20","00:20",0.0,20.5,89.1,1008.6,317.4,1.0,1.8,318.4,0.00,18.7,21.5,"00:17:04",1
"16/10/20","00:30",0.0,20.3,89.3,1008.8,330.8,1.2,2.1,319.9,0.00,18.5,21.4,"00:26:40",1
"16/10/20","00:40",0.0,20.2,89.9,1009.0,315.9,1.1,2.0,336.0,0.00,18.5,21.6,"00:38:24",1
"16/10/20","00:50",0.0,20.3,90.1,1009.0,329.2,1.6,2.5,346.6,0.00,18.7,21.4,"00:42:08",1
"16/10/20","01:00",0.0,20.5,90.2,1008.8,319.6,1.5,2.4,330.3,0.00,18.9,21.4,"00:52:32",1
"16/10/20","01:10",0.0,20.4,90.0,1008.8,304.9,1.1,1.9,315.8,0.00,18.7,21.3,"01:02:16",1
"16/10/20","01:20",0.0,20.3,90.5,1009.0,321.4,1.3,2.2,336.9,0.00,18.7,21.3,"01:18:00",1
"16/10/20","01:30",0.0,20.3,90.6,1008.8,319.7,1.5,2.8,344.3,0.00,18.8,21.3,"01:28:32",1
"16/10/20","01:40",0.0,20.3,90.7,1009.0,329.0,1.6,2.6,345.2,0.00,18.8,21.3,"01:32:00",1
"16/10/20","01:50",0.0,20.3,90.6,1009.0,322.0,1.3,2.9,336.7,0.00,18.8,21.3,"01:40:08",1
"16/10/20","02:00",0.0,20.1,90.5,1009.3,314.3,1.2,2.4,343.4,0.00,18.5,21.2,"01:59:04",1
"16/10/20","02:10",0.0,19.9,90.9,1009.3,312.3,1.2,1.6,320.1,0.00,18.4,21.2,"02:01:20",1
"16/10/20","02:20",0.0,19.9,91.5,1009.0,324.7,1.5,2.7,345.7,0.00,18.5,21.0,"02:13:36",1
"16/10/20","02:30",0.0,20.0,91.5,1009.0,327.8,1.7,2.5,345.1,0.00,18.6,21.1,"02:26:16",1
"16/10/20","02:40",0.0,19.9,91.5,1008.8,326.6,1.5,2.6,334.0,0.00,18.5,21.0,"02:38:56",1
"16/10/20","02:50",0.0,19.8,91.5,1008.8,338.3,2.1,3.4,348.0,0.00,18.4,21.1,"02:44:48",1
"16/10/20","03:00",0.0,19.6,91.6,1009.0,317.8,1.3,2.6,335.3,0.00,18.2,21.0,"02:50:40",1
"16/10/20","03:10",0.0,19.6,91.9,1008.8,316.1,1.2,2.4,351.0,0.00,18.3,21.0,"03:06:16",1
"16/10/20","03:20",0.0,19.5,91.9,1009.0,319.5,1.6,3.1,345.6,0.00,18.2,21.2,"03:18:00",1
"16/10/20","03:30",0.0,19.5,91.9,1008.8,326.7,1.3,2.6,352.7,0.00,18.2,20.9,"03:26:08",1
"16/10/20","03:40",0.0,19.3,92.1,1009.7,322.3,1.2,2.6,351.9,0.00,18.0,20.9,"03:39:28",1
"16/10/20","03:50",0.0,19.1,92.2,1009.5,308.9,0.8,1.4,305.9,0.00,17.8,20.8,"03:48:48",1
"16/10/20","04:00",0.0,19.1,92.5,1009.3,322.5,1.2,2.1,22.3,0.00,17.9,20.7,"03:55:36",1
"16/10/20","04:10",0.0,19.1,92.7,1009.0,327.0,1.3,2.4,349.9,0.00,17.9,20.6,"04:06:08",1
"16/10/20","04:20",0.0,19.0,92.6,1009.5,331.0,1.5,2.7,340.4,0.00,17.8,20.7,"04:17:20",1
"16/10/20","04:30",0.0,18.7,92.9,1009.5,325.2,1.2,2.1,320.1,0.00,17.6,20.6,"04:24:40",1
"16/10/20","04:40",0.0,18.7,93.2,1009.7,327.2,1.0,1.9,320.6,0.00,17.6,20.6,"04:32:24",1
"16/10/20","04:50",0.0,18.6,93.3,1009.3,327.2,1.1,1.7,332.4,0.00,17.5,20.5,"04:48:00",1
"16/10/20","05:00",0.0,18.3,93.1,1009.5,319.3,1.2,2.2,331.3,0.00,17.2,20.8,"04:51:36",1
"16/10/20","05:10",0.0,18.0,93.4,1009.7,296.1,0.8,1.3,322.7,0.00,17.0,20.6,"05:00:48",1
"16/10/20","05:20",0.0,18.0,94.1,1009.7,312.8,1.1,1.8,336.3,0.00,17.1,20.6,"05:14:48",1
"16/10/20","05:30",0.0,18.0,94.7,1009.7,303.7,1.1,1.6,324.6,0.00,17.2,20.5,"05:26:08",1
"16/10/20","05:40",0.0,18.0,94.8,1009.7,307.4,1.1,1.7,327.2,0.00,17.2,20.5,"05:33:28",1
"16/10/20","05:50",0.0,18.0,94.9,1010.0,292.3,1.1,1.7,313.6,0.00,17.2,20.5,"05:48:40",1
"16/10/20","06:00",0.0,18.0,94.5,1010.2,291.0,1.0,2.2,334.0,0.00,17.1,20.4,"05:50:16",1
"16/10/20","06:10",0.0,17.7,94.5,1010.2,299.7,1.0,1.4,315.4,0.00,16.8,20.3,"06:03:36",1
"16/10/20","06:20",0.0,17.6,94.9,1010.0,289.1,1.0,1.3,280.0,0.00,16.8,20.2,"06:18:16",1
"16/10/20","06:30",0.0,17.7,95.2,1010.4,300.4,1.1,1.7,328.3,0.00,17.0,20.1,"06:28:08",1
"16/10/20","06:40",0.0,17.9,95.0,1010.0,293.6,1.1,1.8,316.1,0.00,17.1,20.2,"06:35:52",1
"16/10/20","06:50",0.0,18.2,94.7,1010.2,310.4,1.2,2.1,328.8,0.00,17.4,20.1,"06:42:00",1
"16/10/20","07:00",0.0,18.7,93.8,1010.2,324.2,1.5,2.7,334.7,0.00,17.7,20.3,"06:55:12",1
"16/10/20","07:10",0.0,19.5,89.8,1010.4,314.9,1.1,2.7,313.5,0.01,17.8,20.3,"07:09:44",1
"16/10/20","07:20",0.0,19.9,88.5,1010.4,320.4,1.5,2.2,348.4,0.02,18.0,19.9,"07:13:12",1
"16/10/20","07:30",0.0,20.3,87.1,1010.4,301.2,1.1,2.2,333.9,0.04,18.1,20.2,"07:28:00",1
"16/10/20","07:40",0.0,20.9,85.2,1010.7,295.4,0.6,1.2,302.8,0.06,18.4,20.2,"07:33:20",1
"16/10/20","07:50",0.0,21.3,83.5,1010.9,285.7,0.5,1.1,283.3,0.08,18.4,20.3,"07:42:16",1
"16/10/20","08:00",0.0,22.0,77.4,1010.9,338.4,1.1,3.5,350.4,0.10,17.9,20.2,"07:59:52",1
"16/10/20","08:10",0.0,22.2,75.7,1010.9,351.1,1.3,2.7,54.3,0.13,17.7,20.4,"08:03:44",1
"16/10/20","08:20",0.0,22.6,73.6,1010.9,0.3,1.2,2.9,15.7,0.16,17.7,20.4,"08:18:48",1
"16/10/20","08:30",0.0,22.9,71.0,1010.7,3.5,1.2,3.2,4.1,0.18,17.4,20.4,"08:20:56",1
"16/10/20","08:40",0.0,23.3,71.2,1010.2,3.2,1.2,2.8,346.6,0.20,17.8,20.7,"08:38:16",1
"16/10/20","08:50",0.0,23.5,68.7,1010.4,3.6,1.2,3.2,342.8,0.23,17.5,20.9,"08:41:36",1
"16/10/20","09:00",0.0,23.6,69.2,1010.4,6.6,1.7,4.0,349.4,0.26,17.7,20.7,"08:53:20",1
"16/10/20","09:10",0.0,24.0,68.1,1010.2,346.5,1.3,3.5,341.4,0.29,17.8,20.9,"09:05:28",1
"16/10/20","09:20",0.0,24.3,67.8,1010.4,335.1,1.0,2.7,344.4,0.31,18.0,21.1,"09:12:16",1
"16/10/20","09:30",0.0,24.5,65.4,1010.2,323.3,1.1,2.8,329.8,0.34,17.6,21.2,"09:29:44",1
"16/10/20","09:40",0.0,24.5,64.2,1010.0,318.0,0.8,2.5,36.7,0.28,17.3,21.5,"09:30:08",1
"16/10/20","09:50",0.0,25.0,61.9,1010.0,343.0,1.2,4.0,358.4,0.40,17.2,21.7,"09:47:04",1
"16/10/20","10:00",0.0,24.5,63.7,1009.5,356.8,1.6,4.5,357.3,0.33,17.2,21.7,"09:59:04",1
"16/10/20","10:10",0.0,24.1,62.7,1009.3,354.1,2.0,4.4,349.0,0.24,16.6,21.9,"10:09:36",1
"16/10/20","10:20",0.0,24.9,61.4,1009.3,16.5,2.1,4.2,0.5,0.35,17.0,21.9,"10:12:40",1
"16/10/20","10:30",0.0,25.6,58.9,1008.8,6.7,1.6,3.2,339.7,0.45,17.0,22.2,"10:22:08",1
"16/10/20","10:40",0.0,24.6,61.7,1008.8,335.3,1.3,3.7,25.7,0.28,16.8,22.4,"10:31:44",1
"16/10/20","10:50",0.0,25.5,58.1,1008.8,349.1,1.5,3.6,351.4,0.41,16.7,22.5,"10:42:24",1
"16/10/20","11:00",0.0,25.7,57.9,1008.6,15.5,1.2,3.5,31.3,0.36,16.8,22.4,"10:52:00",1
"16/10/20","11:10",0.0,25.1,58.9,1008.6,342.5,1.7,4.0,7.5,0.26,16.5,22.7,"11:02:00",1
"16/10/20","11:20",0.0,25.9,53.0,1008.1,23.8,2.1,4.1,350.8,0.53,15.6,22.9,"11:11:36",1
"16/10/20","11:30",0.0,25.5,58.6,1008.6,19.0,1.6,4.3,56.5,0.38,16.8,22.9,"11:27:12",1
"16/10/20","11:40",0.0,25.4,56.7,1008.3,4.6,1.8,4.3,26.3,0.39,16.2,23.0,"11:38:08",1
"16/10/20","11:50",0.0,26.2,55.4,1007.6,344.8,1.5,3.6,353.8,0.51,16.6,23.2,"11:40:48",1
"16/10/20","12:00",0.0,25.2,55.2,1008.3,354.0,1.8,3.7,345.3,0.32,15.6,23.1,"11:58:08",1
"16/10/20","12:10",0.0,25.7,51.9,1007.6,9.0,2.2,4.9,15.9,0.50,15.1,23.1,"12:03:28",1
"16/10/20","12:20",0.0,26.0,50.0,1007.8,12.7,1.6,4.5,5.4,0.47,14.8,23.3,"12:11:36",1
"16/10/20","12:30",0.0,25.9,50.7,1007.8,4.5,2.2,5.1,337.3,0.42,14.9,23.6,"12:21:52",1
"16/10/20","12:40",0.0,26.1,49.5,1007.6,1.2,1.8,4.0,350.9,0.49,14.8,23.6,"12:34:32",1
"16/10/20","12:50",0.0,26.2,48.4,1007.8,356.9,1.6,4.1,342.7,0.46,14.5,23.7,"12:46:56",1
"16/10/20","13:00",0.0,25.9,49.8,1007.6,357.8,2.3,4.8,344.4,0.42,14.7,23.7,"12:53:20",1
"16/10/20","13:10",0.0,26.1,49.9,1007.6,14.5,2.1,5.0,11.9,0.46,14.9,23.9,"13:04:56",1
"16/10/20","13:20",0.0,26.0,48.8,1007.6,357.1,1.5,3.7,66.5,0.45,14.4,24.0,"13:18:56",1
"16/10/20","13:30",0.0,25.5,49.8,1007.6,328.3,1.7,4.5,307.3,0.36,14.3,24.0,"13:20:16",1
"16/10/20","13:40",0.0,25.2,53.0,1007.4,340.6,1.7,4.0,346.9,0.29,15.0,24.1,"13:30:48",1
"16/10/20","13:50",0.0,25.7,53.1,1007.1,334.7,1.2,3.5,350.5,0.37,15.5,24.0,"13:44:32",1
"16/10/20","14:00",0.0,24.5,51.0,1008.1,347.6,1.6,3.5,11.7,0.19,13.7,24.0,"13:58:48",1
"16/10/20","14:10",0.0,24.8,53.9,1008.1,342.1,2.1,4.7,337.4,0.27,14.9,24.2,"14:02:48",1
"16/10/20","14:20",0.0,24.7,51.9,1008.6,338.7,1.7,3.9,342.1,0.24,14.2,24.0,"14:12:56",1
"16/10/20","14:30",0.0,24.4,54.1,1008.3,345.5,2.1,4.2,3.0,0.27,14.6,24.2,"14:25:52",1
"16/10/20","14:40",0.0,24.2,53.0,1008.3,359.1,1.6,3.5,351.4,0.21,14.1,24.2,"14:32:48",1
"16/10/20","14:50",0.0,23.9,54.2,1008.8,355.6,2.5,5.6,357.6,0.23,14.1,24.1,"14:43:52",1
"16/10/20","15:00",0.0,23.8,53.9,1008.6,9.2,2.1,5.9,9.0,0.22,14.0,23.9,"14:59:28",1
"16/10/20","15:10",0.0,23.3,56.4,1008.8,3.6,2.1,5.8,342.0,0.14,14.2,23.9,"15:05:44",1
"16/10/20","15:20",0.0,23.0,57.3,1008.8,354.2,2.2,4.4,351.0,0.11,14.2,23.8,"15:16:32",1
"16/10/20","15:30",0.0,22.6,58.1,1008.8,352.9,2.0,5.7,30.4,0.09,14.0,23.6,"15:22:40",1
"16/10/20","15:40",0.0,22.5,58.7,1009.3,8.0,2.8,5.1,8.3,0.10,14.1,23.6,"15:35:04",1
"16/10/20","15:50",0.0,22.4,58.5,1009.3,356.9,1.8,5.9,344.1,0.05,13.9,23.5,"15:43:52",1
"16/10/20","16:00",0.0,22.2,60.3,1009.3,351.5,2.0,5.5,327.9,0.06,14.2,23.2,"15:55:12",1
"16/10/20","16:10",0.0,21.9,61.9,1009.7,357.3,1.5,2.9,346.7,0.02,14.3,23.1,"16:02:24",1
"16/10/20","16:20",0.0,21.7,64.0,1009.5,333.8,1.0,2.2,336.0,0.03,14.6,23.1,"16:17:36",1
"16/10/20","16:30",0.0,21.4,65.1,1009.5,305.0,1.0,2.4,337.9,0.02,14.6,23.0,"16:22:48",1
"16/10/20","16:40",0.0,21.1,66.7,1010.0,285.0,0.6,1.2,319.0,0.01,14.7,23.1,"16:39:44",1
"16/10/20","16:50",0.0,20.8,67.9,1010.0,282.2,0.8,1.6,336.2,0.00,14.7,22.9,"16:47:20",1
"16/10/20","17:00",0.0,20.5,69.0,1010.2,313.0,0.8,1.6,315.5,0.00,14.7,22.8,"16:52:56",1
"16/10/20","17:10",0.0,20.4,71.6,1010.4,317.9,1.2,2.4,330.6,0.00,15.1,22.8,"17:02:56",1
"16/10/20","17:20",0.0,20.0,70.8,1010.2,324.0,1.2,2.5,347.3,0.00,14.6,22.6,"17:12:56",1
"16/10/20","17:30",0.0,19.8,72.2,1010.4,323.2,1.1,1.4,342.5,0.00,14.7,22.7,"17:20:40",1
"16/10/20","17:40",0.0,19.5,74.3,1011.2,325.0,1.1,2.0,327.6,0.00,14.8,22.5,"17:34:16",1
"16/10/20","17:50",0.0,19.3,76.3,1011.2,316.2,1.0,1.4,349.3,0.00,15.1,22.3,"17:42:24",1
"16/10/20","18:00",0.0,18.9,78.2,1011.2,323.9,1.1,1.9,338.0,0.00,15.1,22.2,"17:56:56",1
"16/10/20","18:10",0.0,18.6,79.8,1011.2,323.9,1.1,1.6,315.3,0.00,15.1,22.2,"18:00:40",1
"16/10/20","18:20",0.0,18.3,80.7,1011.6,322.0,1.0,1.4,333.0,0.00,15.0,22.0,"18:19:36",1
"16/10/20","18:30",0.0,18.1,81.4,1011.6,317.8,0.8,2.2,350.5,0.00,14.9,21.9,"18:21:44",1
"16/10/20","18:40",0.0,17.8,82.2,1012.1,323.9,0.7,1.2,318.3,0.00,14.8,21.8,"18:33:20",1
"16/10/20","18:50",0.0,17.7,83.2,1012.1,316.9,1.0,1.6,341.5,0.00,14.9,21.8,"18:41:52",1
"16/10/20","19:00",0.0,17.7,83.9,1011.9,329.8,1.0,2.2,341.2,0.00,15.0,21.7,"18:57:44",1
"16/10/20","19:10",0.0,17.7,83.6,1012.1,343.0,1.2,1.9,340.7,0.00,14.9,21.6,"19:09:44",1
"16/10/20","19:20",0.0,17.7,84.1,1011.6,317.4,1.0,1.6,339.3,0.00,15.0,21.8,"19:10:48",1
"16/10/20","19:30",0.0,17.7,84.1,1012.3,313.8,1.2,2.2,349.6,0.00,15.0,21.4,"19:25:44",1
"16/10/20","19:40",0.0,17.9,83.3,1012.3,328.7,1.3,2.4,336.2,0.00,15.1,21.6,"19:39:28",1
"16/10/20","19:50",0.0,18.1,83.2,1012.3,314.4,1.3,2.4,337.5,0.00,15.2,21.2,"19:46:48",1
"16/10/20","20:00",0.0,18.4,80.6,1013.0,310.0,1.3,1.8,312.0,0.00,15.0,21.4,"19:50:24",1
"16/10/20","20:10",0.0,18.8,79.3,1012.8,327.9,1.3,2.6,342.9,0.00,15.2,21.4,"20:08:00",1
"16/10/20","20:20",0.0,18.8,78.6,1013.3,291.9,0.8,1.6,334.4,0.00,15.0,21.3,"20:10:56",1
"16/10/20","20:30",0.0,18.8,77.3,1012.8,319.6,1.1,2.2,342.3,0.00,14.8,21.3,"20:26:48",1
"16/10/20","20:40",0.0,19.0,76.0,1013.3,313.0,1.1,2.0,336.6,0.00,14.7,21.4,"20:30:32",1
"16/10/20","20:50",0.0,18.9,75.1,1013.3,321.3,1.5,3.2,347.4,0.00,14.4,21.2,"20:43:36",1
"16/10/20","21:00",0.0,19.0,74.1,1012.8,312.8,1.3,2.7,316.2,0.00,14.3,21.2,"20:50:08",1
"16/10/20","21:10",0.0,18.8,73.7,1013.3,297.2,1.1,1.8,305.2,0.00,14.0,21.1,"21:00:16",1
"16/10/20","21:20",0.0,18.7,73.6,1013.3,292.6,1.1,1.8,328.4,0.00,13.9,20.9,"21:10:08",1
"16/10/20","21:30",0.0,18.5,73.7,1013.5,307.1,1.0,2.5,322.0,0.00,13.8,20.9,"21:20:56",1
"16/10/20","21:40",0.0,18.5,73.3,1013.5,307.7,1.3,2.1,317.6,0.00,13.7,20.8,"21:30:24",1
"16/10/20","21:50",0.0,18.3,73.2,1013.0,293.0,0.8,1.4,332.4,0.00,13.5,20.8,"21:45:44",1
"16/10/20","22:00",0.0,18.1,74.0,1013.0,298.0,0.8,2.9,334.2,0.00,13.4,20.7,"21:50:02",1
"16/10/20","22:10",0.0,18.2,74.3,1012.8,312.2,1.3,3.2,337.2,0.00,13.6,20.7,"22:00:08",1
"16/10/20","22:20",0.0,18.2,74.0,1013.5,292.5,1.0,2.0,302.7,0.00,13.5,20.7,"22:16:48",1
"16/10/20","22:30",0.0,18.2,74.5,1013.5,289.7,1.0,1.8,292.5,0.00,13.6,20.7,"22:28:24",1
"16/10/20","22:40",0.0,18.1,75.2,1013.5,295.9,1.1,1.9,242.9,0.00,13.7,20.5,"22:32:32",1
"16/10/20","22:50",0.0,18.0,76.3,1013.5,318.0,1.1,2.4,339.0,0.00,13.8,20.5,"22:46:24",1
"16/10/20","23:00",0.0,18.0,77.5,1013.3,307.5,1.0,1.4,245.6,0.00,14.1,20.5,"22:51:20",1
"16/10/20","23:10",0.0,17.8,78.8,1013.3,321.4,1.1,2.5,342.3,0.00,14.1,20.4,"23:08:24",1
"16/10/20","23:20",0.0,17.8,78.8,1013.0,315.1,1.2,1.9,320.1,0.00,14.1,20.3,"23:16:32",1
"16/10/20","23:30",0.0,18.0,77.6,1013.3,314.6,1.0,2.1,340.8,0.00,14.1,20.4,"23:24:16",1
"16/10/20","23:40",0.0,18.1,77.0,1013.8,324.0,1.3,2.7,338.3,0.00,14.0,20.3,"23:33:04",1
"16/10/20","23:50",0.0,17.9,78.2,1013.0,317.5,1.2,2.5,341.8,0.00,14.1,20.2,"23:48:24",1
"16/10/20","24:00",0.0,17.5,78.7,1013.3,316.6,1.1,2.1,338.5,0.00,13.8,20.4,"23:58:00",1
